Location: Unspecified
(33.9360°N, 0.0000°E)
Time: 14:28:39
(UTC+00:00)

Envisat - Visible Passes

Search period start: 21 May 2019 00:00
Search period end: 31 May 2019 00:00
Orbit: 764 x 766 km, 98.2° (Epoch: 21 May)

Date Brightness Start Highest point End Pass type
(mag) Time Alt. Az. Time Alt. Az. Time Alt. Az.
21 May 5.8 19:51:49 10° SW 19:54:32 14° W 19:57:16 10° WNW visible
24 May 5.6 19:39:41 10° SW 19:43:13 19° W 19:46:45 10° NW visible
27 May 5.3 19:27:49 10° SSW 19:31:54 24° W 19:36:01 10° NW visible
29 May 5.8 19:55:21 10° WSW 19:57:38 13° W 19:59:55 10° WNW visible
